SIRIUS XM-10

Satellite information

Favourite Embed

Satellite Type and Status

PAYLOADIN ORBIT

Key statistics

Satellite SIRIUS XM-10 at a glance.

Uptime

189

Days in orbit

Revolutions

≈ 1.0

Per day

Orbit

GEO

Geostationary Orbit

Inclination

0.0

Latest

Satellite identification and parameters

Extended collection of information and parameters for SIRIUS XM-10.

Object identification

Identified? True

Debris? False

Object name: SIRIUS XM-10

International designator: 2025-122A

Object number (NORAD): 64290

Object ID (CCSDS): 64290

Country: UNITED STATES OF AMERICA (US)

Current information (Y/N): Y

RCS size: LARGE

Orbital parameters

Period: 1436.087 minutes

Inclination: 0.0247 deg

SMA: 42164.546 km

Apoapsis: 35798.529 km

Periapsis: 35774.293 km

RAAN: 32.0549 deg

Eccentricy: 0.0002874

Argument of periapsis: 322.9183 deg

Mean anomaly: 28.6343 deg

Mean motion: 1.00272448 rev/day

Mean motion (dot): -0.00000008 rev/day2

B* drag term: 0.0 1/REarth

Two-line elements (TLE)

Creation date: Dec. 12, 2025, 10:14 a.m.

Reference frame: TEME

Reference center: EARTH

Epoch: Dec. 12, 2025, 3:54 a.m. UTC

TLE line 0: 0 SIRIUS XM-10

TLE line 1: 1 64290U 25122A 25346.16294771 -.00000008 00000-0 00000-0 0 9999

TLE line 2: 2 64290 0.0247 32.0549 0002874 322.9183 28.6343 1.00272448 1801

Live tracking on map

Real-time ground track for satellite SIRIUS XM-10.

In-orbit conjunctions

There are no conjunctions computed for SIRIUS XM-10, at the moment. Check back to stay up to date, as we update our databases every day.

Go to all conjunctions

Associated space launch

SXM-10 is the 11th high-powered, digital, audio radio satellite built by Maxar (SSL) for SiriusXM. The SXM-10 satellite will be based on Maxar’s proven 1300-class platform and built at the company’s manufacturing facility in Palo Alto, California. SXM-10 has a large, mesh, unfurlable reflector almost 10 meters in diameter that allows SiriusXM programming to reach its radios, including those in moving vehicles.

SIRIUS XM-10 was lifted into orbit during the mission ‘Falcon 9 Block 5 | Sirius SXM-10’, on board a Falcon 9 space rocket.

The launch took place on June 7, 2025, 4:54 a.m. from Space Launch Complex 40.

For more information about the launch, click the button.

Launch to space Falcon 9 Block 5 | Sirius SXM-10
Falcon 9 Block 5 | Sirius SXM-10

Agency: N/A

Status: Launch Successful

Launch date: June 7, 2025, 4:54 a.m. UTC

Rocket: Falcon 9

Launch pad: Space Launch Complex 40

Location: Cape Canaveral SFS, FL, USA

...

Latest news about this satellite

News about space launch
Live coverage: SpaceX to launch SXM-10 satellite for SiriusXM on Falcon 9 rocket from Cape Canaveral

The SXM-10 satellite launch comes six months after the SXM-9 satellite was launched from Florida. SpaceX is targeting liftoff from pad 40 at Cape Canaveral Space Force Station on Friday, June 6 at 11:19 p.m. EDT (0319 UTC on June 7).

News about space launch
Launch Roundup: Falcon 9 to launch crewed mission, Rocket Lab to launch 65th Electron

SpaceX continues to dominate the launch manifest with five missions this week, including a crewed… The post Launch Roundup: Falcon 9 to launch crewed mission, Rocket Lab to launch 65th Electron appeared first on NASASpaceFlight.com.


Newsletter sign-up

Weekly statistics, charts and insights to help you stay on top of the space industry.